Index of /20260430/WXO-DD/model_gdps/15km/12/204
Name Last modified Size Description
Parent Directory -
20260430T12Z_MSC_GDPS_AbsoluteVorticity_IsbL-0200_LatLon0.15_PT204H.grib2 2026-04-30 16:33 1.2M
20260430T12Z_MSC_GDPS_AbsoluteVorticity_IsbL-0250_LatLon0.15_PT204H.grib2 2026-04-30 16:33 1.3M
20260430T12Z_MSC_GDPS_AbsoluteVorticity_IsbL-0500_LatLon0.15_PT204H.grib2 2026-04-30 16:33 1.2M
20260430T12Z_MSC_GDPS_AbsoluteVorticity_IsbL-0700_LatLon0.15_PT204H.grib2 2026-04-30 16:33 1.3M
20260430T12Z_MSC_GDPS_AbsoluteVorticity_IsbL-0850_LatLon0.15_PT204H.grib2 2026-04-30 16:33 1.6M
20260430T12Z_MSC_GDPS_AirTemp-Max_AGL-2m_LatLon0.15_PT204H.grib2 2026-04-30 16:33 745K
20260430T12Z_MSC_GDPS_AirTemp-Min_AGL-2m_LatLon0.15_PT204H.grib2 2026-04-30 16:33 795K
20260430T12Z_MSC_GDPS_AirTemp_AGL-120m_LatLon0.15_PT204H.grib2 2026-04-30 16:33 908K
20260430T12Z_MSC_GDPS_AirTemp_AGL-2m_LatLon0.15_PT204H.grib2 2026-04-30 16:33 1.0M
20260430T12Z_MSC_GDPS_AirTemp_AGL-40m_LatLon0.15_PT204H.grib2 2026-04-30 16:33 812K
20260430T12Z_MSC_GDPS_AirTemp_AGL-80m_LatLon0.15_PT204H.grib2 2026-04-30 16:33 917K
20260430T12Z_MSC_GDPS_AirTemp_IsbL-0001_LatLon0.15_PT204H.grib2 2026-04-30 16:33 665K
20260430T12Z_MSC_GDPS_AirTemp_IsbL-0005_LatLon0.15_PT204H.grib2 2026-04-30 16:33 686K
20260430T12Z_MSC_GDPS_AirTemp_IsbL-0010_LatLon0.15_PT204H.grib2 2026-04-30 16:33 696K
20260430T12Z_MSC_GDPS_AirTemp_IsbL-0020_LatLon0.15_PT204H.grib2 2026-04-30 16:33 784K
20260430T12Z_MSC_GDPS_AirTemp_IsbL-0030_LatLon0.15_PT204H.grib2 2026-04-30 16:33 835K
20260430T12Z_MSC_GDPS_AirTemp_IsbL-0050_LatLon0.15_PT204H.grib2 2026-04-30 16:33 799K
20260430T12Z_MSC_GDPS_AirTemp_IsbL-0100_LatLon0.15_PT204H.grib2 2026-04-30 16:33 964K
20260430T12Z_MSC_GDPS_AirTemp_IsbL-0150_LatLon0.15_PT204H.grib2 2026-04-30 16:33 1.0M
20260430T12Z_MSC_GDPS_AirTemp_IsbL-0175_LatLon0.15_PT204H.grib2 2026-04-30 16:33 955K
20260430T12Z_MSC_GDPS_AirTemp_IsbL-0200_LatLon0.15_PT204H.grib2 2026-04-30 16:33 967K
20260430T12Z_MSC_GDPS_AirTemp_IsbL-0225_LatLon0.15_PT204H.grib2 2026-04-30 16:33 966K
20260430T12Z_MSC_GDPS_AirTemp_IsbL-0250_LatLon0.15_PT204H.grib2 2026-04-30 16:33 1.0M
20260430T12Z_MSC_GDPS_AirTemp_IsbL-0275_LatLon0.15_PT204H.grib2 2026-04-30 16:33 1.0M
20260430T12Z_MSC_GDPS_AirTemp_IsbL-0300_LatLon0.15_PT204H.grib2 2026-04-30 16:33 942K
20260430T12Z_MSC_GDPS_AirTemp_IsbL-0350_LatLon0.15_PT204H.grib2 2026-04-30 16:33 927K
20260430T12Z_MSC_GDPS_AirTemp_IsbL-0400_LatLon0.15_PT204H.grib2 2026-04-30 16:33 943K
20260430T12Z_MSC_GDPS_AirTemp_IsbL-0450_LatLon0.15_PT204H.grib2 2026-04-30 16:33 967K
20260430T12Z_MSC_GDPS_AirTemp_IsbL-0500_LatLon0.15_PT204H.grib2 2026-04-30 16:33 1.0M
20260430T12Z_MSC_GDPS_AirTemp_IsbL-0550_LatLon0.15_PT204H.grib2 2026-04-30 16:33 805K
20260430T12Z_MSC_GDPS_AirTemp_IsbL-0600_LatLon0.15_PT204H.grib2 2026-04-30 16:33 897K
20260430T12Z_MSC_GDPS_AirTemp_IsbL-0650_LatLon0.15_PT204H.grib2 2026-04-30 16:33 922K
20260430T12Z_MSC_GDPS_AirTemp_IsbL-0700_LatLon0.15_PT204H.grib2 2026-04-30 16:33 955K
20260430T12Z_MSC_GDPS_AirTemp_IsbL-0750_LatLon0.15_PT204H.grib2 2026-04-30 16:33 1.0M
20260430T12Z_MSC_GDPS_AirTemp_IsbL-0800_LatLon0.15_PT204H.grib2 2026-04-30 16:33 1.1M
20260430T12Z_MSC_GDPS_AirTemp_IsbL-0850_LatLon0.15_PT204H.grib2 2026-04-30 16:33 1.1M
20260430T12Z_MSC_GDPS_AirTemp_IsbL-0875_LatLon0.15_PT204H.grib2 2026-04-30 16:33 1.2M
20260430T12Z_MSC_GDPS_AirTemp_IsbL-0900_LatLon0.15_PT204H.grib2 2026-04-30 16:33 1.2M
20260430T12Z_MSC_GDPS_AirTemp_IsbL-0925_LatLon0.15_PT204H.grib2 2026-04-30 16:33 1.1M
20260430T12Z_MSC_GDPS_AirTemp_IsbL-0950_LatLon0.15_PT204H.grib2 2026-04-30 16:33 1.1M
20260430T12Z_MSC_GDPS_AirTemp_IsbL-0970_LatLon0.15_PT204H.grib2 2026-04-30 16:33 1.1M
20260430T12Z_MSC_GDPS_AirTemp_IsbL-0985_LatLon0.15_PT204H.grib2 2026-04-30 16:33 1.1M
20260430T12Z_MSC_GDPS_AirTemp_IsbL-1000_LatLon0.15_PT204H.grib2 2026-04-30 16:33 1.1M
20260430T12Z_MSC_GDPS_AirTemp_IsbL-1015_LatLon0.15_PT204H.grib2 2026-04-30 16:33 1.1M
20260430T12Z_MSC_GDPS_Albedo_Sfc_LatLon0.15_PT204H.grib2 2026-04-30 16:33 243K
20260430T12Z_MSC_GDPS_CAPE_Sfc_LatLon0.15_PT204H.grib2 2026-04-30 16:33 3.9M
20260430T12Z_MSC_GDPS_CIN_Sfc_LatLon0.15_PT204H.grib2 2026-04-30 16:33 2.8M
20260430T12Z_MSC_GDPS_CloudWater_EAtm_LatLon0.15_PT204H.grib2 2026-04-30 16:33 541K
20260430T12Z_MSC_GDPS_ConvectivePrecip-Accum_Sfc_LatLon0.15_PT204H.grib2 2026-04-30 16:33 3.7M
20260430T12Z_MSC_GDPS_DewPointDepression_AGL-2m_LatLon0.15_PT204H.grib2 2026-04-30 16:33 766K
20260430T12Z_MSC_GDPS_DewPointDepression_IsbL-0010_LatLon0.15_PT204H.grib2 2026-04-30 16:33 69K
20260430T12Z_MSC_GDPS_DewPointDepression_IsbL-0020_LatLon0.15_PT204H.grib2 2026-04-30 16:33 75K
20260430T12Z_MSC_GDPS_DewPointDepression_IsbL-0030_LatLon0.15_PT204H.grib2 2026-04-30 16:33 89K
20260430T12Z_MSC_GDPS_DewPointDepression_IsbL-0050_LatLon0.15_PT204H.grib2 2026-04-30 16:33 381K
20260430T12Z_MSC_GDPS_DewPointDepression_IsbL-0100_LatLon0.15_PT204H.grib2 2026-04-30 16:33 399K
20260430T12Z_MSC_GDPS_DewPointDepression_IsbL-0150_LatLon0.15_PT204H.grib2 2026-04-30 16:33 486K
20260430T12Z_MSC_GDPS_DewPointDepression_IsbL-0175_LatLon0.15_PT204H.grib2 2026-04-30 16:33 582K
20260430T12Z_MSC_GDPS_DewPointDepression_IsbL-0200_LatLon0.15_PT204H.grib2 2026-04-30 16:33 682K
20260430T12Z_MSC_GDPS_DewPointDepression_IsbL-0225_LatLon0.15_PT204H.grib2 2026-04-30 16:33 775K
20260430T12Z_MSC_GDPS_DewPointDepression_IsbL-0250_LatLon0.15_PT204H.grib2 2026-04-30 16:33 869K
20260430T12Z_MSC_GDPS_DewPointDepression_IsbL-0275_LatLon0.15_PT204H.grib2 2026-04-30 16:33 894K
20260430T12Z_MSC_GDPS_DewPointDepression_IsbL-0300_LatLon0.15_PT204H.grib2 2026-04-30 16:33 937K
20260430T12Z_MSC_GDPS_DewPointDepression_IsbL-0350_LatLon0.15_PT204H.grib2 2026-04-30 16:33 963K
20260430T12Z_MSC_GDPS_DewPointDepression_IsbL-0400_LatLon0.15_PT204H.grib2 2026-04-30 16:33 1.0M
20260430T12Z_MSC_GDPS_DewPointDepression_IsbL-0450_LatLon0.15_PT204H.grib2 2026-04-30 16:33 1.0M
20260430T12Z_MSC_GDPS_DewPointDepression_IsbL-0500_LatLon0.15_PT204H.grib2 2026-04-30 16:33 1.0M
20260430T12Z_MSC_GDPS_DewPointDepression_IsbL-0550_LatLon0.15_PT204H.grib2 2026-04-30 16:33 1.0M
20260430T12Z_MSC_GDPS_DewPointDepression_IsbL-0600_LatLon0.15_PT204H.grib2 2026-04-30 16:33 1.1M
20260430T12Z_MSC_GDPS_DewPointDepression_IsbL-0650_LatLon0.15_PT204H.grib2 2026-04-30 16:33 1.1M
20260430T12Z_MSC_GDPS_DewPointDepression_IsbL-0700_LatLon0.15_PT204H.grib2 2026-04-30 16:33 1.1M
20260430T12Z_MSC_GDPS_DewPointDepression_IsbL-0750_LatLon0.15_PT204H.grib2 2026-04-30 16:33 1.1M
20260430T12Z_MSC_GDPS_DewPointDepression_IsbL-0800_LatLon0.15_PT204H.grib2 2026-04-30 16:33 1.2M
20260430T12Z_MSC_GDPS_DewPointDepression_IsbL-0850_LatLon0.15_PT204H.grib2 2026-04-30 16:33 1.2M
20260430T12Z_MSC_GDPS_DewPointDepression_IsbL-0875_LatLon0.15_PT204H.grib2 2026-04-30 16:33 1.1M
20260430T12Z_MSC_GDPS_DewPointDepression_IsbL-0900_LatLon0.15_PT204H.grib2 2026-04-30 16:33 1.1M
20260430T12Z_MSC_GDPS_DewPointDepression_IsbL-0925_LatLon0.15_PT204H.grib2 2026-04-30 16:33 1.0M
20260430T12Z_MSC_GDPS_DewPointDepression_IsbL-0950_LatLon0.15_PT204H.grib2 2026-04-30 16:33 1.0M
20260430T12Z_MSC_GDPS_DewPointDepression_IsbL-0970_LatLon0.15_PT204H.grib2 2026-04-30 16:33 1.0M
20260430T12Z_MSC_GDPS_DewPointDepression_IsbL-0985_LatLon0.15_PT204H.grib2 2026-04-30 16:33 1.0M
20260430T12Z_MSC_GDPS_DewPointDepression_IsbL-1000_LatLon0.15_PT204H.grib2 2026-04-30 16:33 1.0M
20260430T12Z_MSC_GDPS_DewPointDepression_IsbL-1015_LatLon0.15_PT204H.grib2 2026-04-30 16:33 917K
20260430T12Z_MSC_GDPS_DewPoint_AGL-2m_LatLon0.15_PT204H.grib2 2026-04-30 16:33 608K
20260430T12Z_MSC_GDPS_DownwardLongwaveRadiationFlux-Accum_Sfc_LatLon0.15_PT204H.grib2 2026-04-30 16:33 715K
20260430T12Z_MSC_GDPS_DownwardShortwaveRadiationFlux-Accum_NTAtm_LatLon0.15_PT204H.grib2 2026-04-30 16:33 261K
20260430T12Z_MSC_GDPS_DownwardShortwaveRadiationFlux-Accum_Sfc_LatLon0.15_PT204H.grib2 2026-04-30 16:33 865K
20260430T12Z_MSC_GDPS_FreezingRain-Accum12h_Sfc_LatLon0.15_PT204H.grib2 2026-04-30 16:33 103K
20260430T12Z_MSC_GDPS_FreezingRain-Accum24h_Sfc_LatLon0.15_PT204H.grib2 2026-04-30 16:33 141K
20260430T12Z_MSC_GDPS_FreezingRain-Accum6h_Sfc_LatLon0.15_PT204H.grib2 2026-04-30 16:33 60K
20260430T12Z_MSC_GDPS_FreezingRain-Accum_Sfc_LatLon0.15_PT204H.grib2 2026-04-30 16:33 518K
20260430T12Z_MSC_GDPS_GeopotentialHeight_IsbL-0001_LatLon0.15_PT204H.grib2 2026-04-30 16:33 430K
20260430T12Z_MSC_GDPS_GeopotentialHeight_IsbL-0005_LatLon0.15_PT204H.grib2 2026-04-30 16:33 482K
20260430T12Z_MSC_GDPS_GeopotentialHeight_IsbL-0010_LatLon0.15_PT204H.grib2 2026-04-30 16:33 471K
20260430T12Z_MSC_GDPS_GeopotentialHeight_IsbL-0020_LatLon0.15_PT204H.grib2 2026-04-30 16:33 408K
20260430T12Z_MSC_GDPS_GeopotentialHeight_IsbL-0030_LatLon0.15_PT204H.grib2 2026-04-30 16:33 413K
20260430T12Z_MSC_GDPS_GeopotentialHeight_IsbL-0050_LatLon0.15_PT204H.grib2 2026-04-30 16:33 568K
20260430T12Z_MSC_GDPS_GeopotentialHeight_IsbL-0100_LatLon0.15_PT204H.grib2 2026-04-30 16:33 604K
20260430T12Z_MSC_GDPS_GeopotentialHeight_IsbL-0150_LatLon0.15_PT204H.grib2 2026-04-30 16:33 625K
20260430T12Z_MSC_GDPS_GeopotentialHeight_IsbL-0175_LatLon0.15_PT204H.grib2 2026-04-30 16:33 630K
20260430T12Z_MSC_GDPS_GeopotentialHeight_IsbL-0200_LatLon0.15_PT204H.grib2 2026-04-30 16:33 637K
20260430T12Z_MSC_GDPS_GeopotentialHeight_IsbL-0225_LatLon0.15_PT204H.grib2 2026-04-30 16:33 636K
20260430T12Z_MSC_GDPS_GeopotentialHeight_IsbL-0250_LatLon0.15_PT204H.grib2 2026-04-30 16:33 641K
20260430T12Z_MSC_GDPS_GeopotentialHeight_IsbL-0275_LatLon0.15_PT204H.grib2 2026-04-30 16:33 644K
20260430T12Z_MSC_GDPS_GeopotentialHeight_IsbL-0300_LatLon0.15_PT204H.grib2 2026-04-30 16:33 644K
20260430T12Z_MSC_GDPS_GeopotentialHeight_IsbL-0350_LatLon0.15_PT204H.grib2 2026-04-30 16:33 633K
20260430T12Z_MSC_GDPS_GeopotentialHeight_IsbL-0400_LatLon0.15_PT204H.grib2 2026-04-30 16:33 624K
20260430T12Z_MSC_GDPS_GeopotentialHeight_IsbL-0450_LatLon0.15_PT204H.grib2 2026-04-30 16:33 613K
20260430T12Z_MSC_GDPS_GeopotentialHeight_IsbL-0500_LatLon0.15_PT204H.grib2 2026-04-30 16:33 534K
20260430T12Z_MSC_GDPS_GeopotentialHeight_IsbL-0550_LatLon0.15_PT204H.grib2 2026-04-30 16:33 527K
20260430T12Z_MSC_GDPS_GeopotentialHeight_IsbL-0600_LatLon0.15_PT204H.grib2 2026-04-30 16:33 522K
20260430T12Z_MSC_GDPS_GeopotentialHeight_IsbL-0650_LatLon0.15_PT204H.grib2 2026-04-30 16:33 687K
20260430T12Z_MSC_GDPS_GeopotentialHeight_IsbL-0700_LatLon0.15_PT204H.grib2 2026-04-30 16:33 685K
20260430T12Z_MSC_GDPS_GeopotentialHeight_IsbL-0750_LatLon0.15_PT204H.grib2 2026-04-30 16:33 695K
20260430T12Z_MSC_GDPS_GeopotentialHeight_IsbL-0800_LatLon0.15_PT204H.grib2 2026-04-30 16:33 704K
20260430T12Z_MSC_GDPS_GeopotentialHeight_IsbL-0850_LatLon0.15_PT204H.grib2 2026-04-30 16:33 716K
20260430T12Z_MSC_GDPS_GeopotentialHeight_IsbL-0875_LatLon0.15_PT204H.grib2 2026-04-30 16:33 721K
20260430T12Z_MSC_GDPS_GeopotentialHeight_IsbL-0900_LatLon0.15_PT204H.grib2 2026-04-30 16:33 728K
20260430T12Z_MSC_GDPS_GeopotentialHeight_IsbL-0925_LatLon0.15_PT204H.grib2 2026-04-30 16:33 734K
20260430T12Z_MSC_GDPS_GeopotentialHeight_IsbL-0950_LatLon0.15_PT204H.grib2 2026-04-30 16:33 741K
20260430T12Z_MSC_GDPS_GeopotentialHeight_IsbL-0970_LatLon0.15_PT204H.grib2 2026-04-30 16:33 753K
20260430T12Z_MSC_GDPS_GeopotentialHeight_IsbL-0985_LatLon0.15_PT204H.grib2 2026-04-30 16:33 768K
20260430T12Z_MSC_GDPS_GeopotentialHeight_IsbL-1000_LatLon0.15_PT204H.grib2 2026-04-30 16:33 787K
20260430T12Z_MSC_GDPS_GeopotentialHeight_IsbL-1015_LatLon0.15_PT204H.grib2 2026-04-30 16:33 808K
20260430T12Z_MSC_GDPS_Humidex_Sfc_LatLon0.15_PT204H.grib2 2026-04-30 16:33 5.3M
20260430T12Z_MSC_GDPS_IcePellets-Accum12h_Sfc_LatLon0.15_PT204H.grib2 2026-04-30 16:33 22K
20260430T12Z_MSC_GDPS_IcePellets-Accum24h_Sfc_LatLon0.15_PT204H.grib2 2026-04-30 16:33 21K
20260430T12Z_MSC_GDPS_IcePellets-Accum6h_Sfc_LatLon0.15_PT204H.grib2 2026-04-30 16:33 16K
20260430T12Z_MSC_GDPS_IcePellets-Accum_Sfc_LatLon0.15_PT204H.grib2 2026-04-30 16:33 165K
20260430T12Z_MSC_GDPS_KIndex_Sfc_LatLon0.15_PT204H.grib2 2026-04-30 16:33 6.5M
20260430T12Z_MSC_GDPS_LatentHeatNetFlux_Sfc_LatLon0.15_PT204H.grib2 2026-04-30 16:33 671K
20260430T12Z_MSC_GDPS_LiftedIndex-MU-VT_IsbL-0500_LatLon0.15_PT204H.grib2 2026-04-30 16:33 5.3M
20260430T12Z_MSC_GDPS_NetLongwaveRadiationFlux-Accum_Sfc_LatLon0.15_PT204H.grib2 2026-04-30 16:33 905K
20260430T12Z_MSC_GDPS_NetShortwaveRadiationFlux-Accum_Sfc_LatLon0.15_PT204H.grib2 2026-04-30 16:33 864K
20260430T12Z_MSC_GDPS_O3MixingRatio_Sfc_LatLon0.15_PT204H.grib2 2026-04-30 16:46 1.9M
20260430T12Z_MSC_GDPS_O3_EAtm_LatLon0.15_PT204H.grib2 2026-04-30 16:46 2.4M
20260430T12Z_MSC_GDPS_PlanetaryBoundaryLayerHeight_Sfc_LatLon0.15_PT204H.grib2 2026-04-30 16:33 2.4M
20260430T12Z_MSC_GDPS_Precip-Accum12h_Sfc_LatLon0.15_PT204H.grib2 2026-04-30 16:33 4.1M
20260430T12Z_MSC_GDPS_Precip-Accum24h_Sfc_LatLon0.15_PT204H.grib2 2026-04-30 16:33 4.3M
20260430T12Z_MSC_GDPS_Precip-Accum6h_Sfc_LatLon0.15_PT204H.grib2 2026-04-30 16:33 3.8M
20260430T12Z_MSC_GDPS_Precip-Accum_Sfc_LatLon0.15_PT204H.grib2 2026-04-30 16:33 5.4M
20260430T12Z_MSC_GDPS_PrecipRate_Sfc_LatLon0.15_PT204H.grib2 2026-04-30 16:33 3.0M
20260430T12Z_MSC_GDPS_PrecipType-Instant_Sfc_LatLon0.15_PT204H.grib2 2026-04-30 16:33 1.5M
20260430T12Z_MSC_GDPS_Pressure_MSL_LatLon0.15_PT204H.grib2 2026-04-30 16:33 721K
20260430T12Z_MSC_GDPS_Pressure_PVU-1.5_LatLon0.15_PT204H.grib2 2026-04-30 16:33 5.8M
20260430T12Z_MSC_GDPS_Pressure_PVU-1_LatLon0.15_PT204H.grib2 2026-04-30 16:33 6.0M
20260430T12Z_MSC_GDPS_Pressure_PVU-2_LatLon0.15_PT204H.grib2 2026-04-30 16:33 5.6M
20260430T12Z_MSC_GDPS_Pressure_Sfc_LatLon0.15_PT204H.grib2 2026-04-30 16:33 1.1M
20260430T12Z_MSC_GDPS_RadiativeTemp_Sfc_LatLon0.15_PT204H.grib2 2026-04-30 16:33 663K
20260430T12Z_MSC_GDPS_Rain-Accum12h_Sfc_LatLon0.15_PT204H.grib2 2026-04-30 16:33 2.7M
20260430T12Z_MSC_GDPS_Rain-Accum24h_Sfc_LatLon0.15_PT204H.grib2 2026-04-30 16:33 3.0M
20260430T12Z_MSC_GDPS_Rain-Accum6h_Sfc_LatLon0.15_PT204H.grib2 2026-04-30 16:33 2.5M
20260430T12Z_MSC_GDPS_Rain-Accum_Sfc_LatLon0.15_PT204H.grib2 2026-04-30 16:33 4.3M
20260430T12Z_MSC_GDPS_RelativeHumidity_AGL-2m_LatLon0.15_PT204H.grib2 2026-04-30 16:33 1.0M
20260430T12Z_MSC_GDPS_RelativeHumidity_IsbL-0010_LatLon0.15_PT204H.grib2 2026-04-30 16:33 192K
20260430T12Z_MSC_GDPS_RelativeHumidity_IsbL-0020_LatLon0.15_PT204H.grib2 2026-04-30 16:33 156K
20260430T12Z_MSC_GDPS_RelativeHumidity_IsbL-0030_LatLon0.15_PT204H.grib2 2026-04-30 16:33 180K
20260430T12Z_MSC_GDPS_RelativeHumidity_IsbL-0050_LatLon0.15_PT204H.grib2 2026-04-30 16:33 329K
20260430T12Z_MSC_GDPS_RelativeHumidity_IsbL-0100_LatLon0.15_PT204H.grib2 2026-04-30 16:33 500K
20260430T12Z_MSC_GDPS_RelativeHumidity_IsbL-0150_LatLon0.15_PT204H.grib2 2026-04-30 16:33 673K
20260430T12Z_MSC_GDPS_RelativeHumidity_IsbL-0175_LatLon0.15_PT204H.grib2 2026-04-30 16:33 795K
20260430T12Z_MSC_GDPS_RelativeHumidity_IsbL-0200_LatLon0.15_PT204H.grib2 2026-04-30 16:33 710K
20260430T12Z_MSC_GDPS_RelativeHumidity_IsbL-0225_LatLon0.15_PT204H.grib2 2026-04-30 16:33 796K
20260430T12Z_MSC_GDPS_RelativeHumidity_IsbL-0250_LatLon0.15_PT204H.grib2 2026-04-30 16:33 871K
20260430T12Z_MSC_GDPS_RelativeHumidity_IsbL-0275_LatLon0.15_PT204H.grib2 2026-04-30 16:33 897K
20260430T12Z_MSC_GDPS_RelativeHumidity_IsbL-0300_LatLon0.15_PT204H.grib2 2026-04-30 16:33 938K
20260430T12Z_MSC_GDPS_RelativeHumidity_IsbL-0350_LatLon0.15_PT204H.grib2 2026-04-30 16:33 954K
20260430T12Z_MSC_GDPS_RelativeHumidity_IsbL-0400_LatLon0.15_PT204H.grib2 2026-04-30 16:33 1.0M
20260430T12Z_MSC_GDPS_RelativeHumidity_IsbL-0450_LatLon0.15_PT204H.grib2 2026-04-30 16:33 1.0M
20260430T12Z_MSC_GDPS_RelativeHumidity_IsbL-0500_LatLon0.15_PT204H.grib2 2026-04-30 16:33 1.0M
20260430T12Z_MSC_GDPS_RelativeHumidity_IsbL-0550_LatLon0.15_PT204H.grib2 2026-04-30 16:33 1.0M
20260430T12Z_MSC_GDPS_RelativeHumidity_IsbL-0600_LatLon0.15_PT204H.grib2 2026-04-30 16:33 1.1M
20260430T12Z_MSC_GDPS_RelativeHumidity_IsbL-0650_LatLon0.15_PT204H.grib2 2026-04-30 16:33 1.1M
20260430T12Z_MSC_GDPS_RelativeHumidity_IsbL-0700_LatLon0.15_PT204H.grib2 2026-04-30 16:33 1.1M
20260430T12Z_MSC_GDPS_RelativeHumidity_IsbL-0750_LatLon0.15_PT204H.grib2 2026-04-30 16:33 1.1M
20260430T12Z_MSC_GDPS_RelativeHumidity_IsbL-0800_LatLon0.15_PT204H.grib2 2026-04-30 16:33 1.2M
20260430T12Z_MSC_GDPS_RelativeHumidity_IsbL-0850_LatLon0.15_PT204H.grib2 2026-04-30 16:33 1.3M
20260430T12Z_MSC_GDPS_RelativeHumidity_IsbL-0875_LatLon0.15_PT204H.grib2 2026-04-30 16:33 1.3M
20260430T12Z_MSC_GDPS_RelativeHumidity_IsbL-0900_LatLon0.15_PT204H.grib2 2026-04-30 16:33 1.2M
20260430T12Z_MSC_GDPS_RelativeHumidity_IsbL-0925_LatLon0.15_PT204H.grib2 2026-04-30 16:33 1.2M
20260430T12Z_MSC_GDPS_RelativeHumidity_IsbL-0950_LatLon0.15_PT204H.grib2 2026-04-30 16:33 1.2M
20260430T12Z_MSC_GDPS_RelativeHumidity_IsbL-0970_LatLon0.15_PT204H.grib2 2026-04-30 16:33 1.2M
20260430T12Z_MSC_GDPS_RelativeHumidity_IsbL-0985_LatLon0.15_PT204H.grib2 2026-04-30 16:33 1.1M
20260430T12Z_MSC_GDPS_RelativeHumidity_IsbL-1000_LatLon0.15_PT204H.grib2 2026-04-30 16:33 1.1M
20260430T12Z_MSC_GDPS_RelativeHumidity_IsbL-1015_LatLon0.15_PT204H.grib2 2026-04-30 16:33 1.0M
20260430T12Z_MSC_GDPS_RelativeVorticity_IsbL-0200_LatLon0.15_PT204H.grib2 2026-04-30 16:33 1.2M
20260430T12Z_MSC_GDPS_RelativeVorticity_IsbL-0250_LatLon0.15_PT204H.grib2 2026-04-30 16:33 1.3M
20260430T12Z_MSC_GDPS_RelativeVorticity_IsbL-0500_LatLon0.15_PT204H.grib2 2026-04-30 16:33 1.2M
20260430T12Z_MSC_GDPS_RelativeVorticity_IsbL-0700_LatLon0.15_PT204H.grib2 2026-04-30 16:33 1.3M
20260430T12Z_MSC_GDPS_RelativeVorticity_IsbL-0850_LatLon0.15_PT204H.grib2 2026-04-30 16:33 1.6M
20260430T12Z_MSC_GDPS_Runoff-Accum_Sfc_LatLon0.15_PT204H.grib2 2026-04-30 16:33 132K
20260430T12Z_MSC_GDPS_SensibleHeatNetFlux_Sfc_LatLon0.15_PT204H.grib2 2026-04-30 16:33 448K
20260430T12Z_MSC_GDPS_ShowalterIndex_IsbL-0500_LatLon0.15_PT204H.grib2 2026-04-30 16:33 6.2M
20260430T12Z_MSC_GDPS_Snow-Accum12h_Sfc_LatLon0.15_PT204H.grib2 2026-04-30 16:33 1.6M
20260430T12Z_MSC_GDPS_Snow-Accum24h_Sfc_LatLon0.15_PT204H.grib2 2026-04-30 16:33 1.6M
20260430T12Z_MSC_GDPS_Snow-Accum6h_Sfc_LatLon0.15_PT204H.grib2 2026-04-30 16:33 1.5M
20260430T12Z_MSC_GDPS_Snow-Accum_Sfc_LatLon0.15_PT204H.grib2 2026-04-30 16:33 2.1M
20260430T12Z_MSC_GDPS_SnowDensity_Sfc_LatLon0.15_PT204H.grib2 2026-04-30 16:33 259K
20260430T12Z_MSC_GDPS_SnowDepth_Sfc_LatLon0.15_PT204H.grib2 2026-04-30 16:33 1.7M
20260430T12Z_MSC_GDPS_SoilTemp_DBS-0to10cm_LatLon0.15_PT204H.grib2 2026-04-30 16:33 515K
20260430T12Z_MSC_GDPS_SoilTemp_Sfc_LatLon0.15_PT204H.grib2 2026-04-30 16:33 581K
20260430T12Z_MSC_GDPS_SoilVolumetricIceContent_Sfc_LatLon0.15_PT204H.grib2 2026-04-30 16:33 181K
20260430T12Z_MSC_GDPS_SoilVolumetricWaterContent_DBS-0to10cm_LatLon0.15_PT204H.grib2 2026-04-30 16:33 596K
20260430T12Z_MSC_GDPS_SoilVolumetricWaterContent_DBS-0to1cm_LatLon0.15_PT204H.grib2 2026-04-30 16:33 651K
20260430T12Z_MSC_GDPS_SpecificHumidity_AGL-120m_LatLon0.15_PT204H.grib2 2026-04-30 16:33 1.1M
20260430T12Z_MSC_GDPS_SpecificHumidity_AGL-2m_LatLon0.15_PT204H.grib2 2026-04-30 16:33 1.2M
20260430T12Z_MSC_GDPS_SpecificHumidity_AGL-40m_LatLon0.15_PT204H.grib2 2026-04-30 16:33 1.1M
20260430T12Z_MSC_GDPS_SpecificHumidity_AGL-80m_LatLon0.15_PT204H.grib2 2026-04-30 16:33 1.1M
20260430T12Z_MSC_GDPS_SpecificHumidity_IsbL-0001_LatLon0.15_PT204H.grib2 2026-04-30 16:33 1.1M
20260430T12Z_MSC_GDPS_SpecificHumidity_IsbL-0005_LatLon0.15_PT204H.grib2 2026-04-30 16:33 1.0M
20260430T12Z_MSC_GDPS_SpecificHumidity_IsbL-0010_LatLon0.15_PT204H.grib2 2026-04-30 16:33 1.1M
20260430T12Z_MSC_GDPS_SpecificHumidity_IsbL-0020_LatLon0.15_PT204H.grib2 2026-04-30 16:33 1.2M
20260430T12Z_MSC_GDPS_SpecificHumidity_IsbL-0030_LatLon0.15_PT204H.grib2 2026-04-30 16:33 1.4M
20260430T12Z_MSC_GDPS_SpecificHumidity_IsbL-0050_LatLon0.15_PT204H.grib2 2026-04-30 16:33 1.2M
20260430T12Z_MSC_GDPS_SpecificHumidity_IsbL-0100_LatLon0.15_PT204H.grib2 2026-04-30 16:33 1.2M
20260430T12Z_MSC_GDPS_SpecificHumidity_IsbL-0150_LatLon0.15_PT204H.grib2 2026-04-30 16:33 1.3M
20260430T12Z_MSC_GDPS_SpecificHumidity_IsbL-0175_LatLon0.15_PT204H.grib2 2026-04-30 16:33 1.3M
20260430T12Z_MSC_GDPS_SpecificHumidity_IsbL-0200_LatLon0.15_PT204H.grib2 2026-04-30 16:33 1.3M
20260430T12Z_MSC_GDPS_SpecificHumidity_IsbL-0225_LatLon0.15_PT204H.grib2 2026-04-30 16:33 1.3M
20260430T12Z_MSC_GDPS_SpecificHumidity_IsbL-0250_LatLon0.15_PT204H.grib2 2026-04-30 16:33 1.2M
20260430T12Z_MSC_GDPS_SpecificHumidity_IsbL-0275_LatLon0.15_PT204H.grib2 2026-04-30 16:33 1.4M
20260430T12Z_MSC_GDPS_SpecificHumidity_IsbL-0300_LatLon0.15_PT204H.grib2 2026-04-30 16:33 1.2M
20260430T12Z_MSC_GDPS_SpecificHumidity_IsbL-0350_LatLon0.15_PT204H.grib2 2026-04-30 16:33 1.2M
20260430T12Z_MSC_GDPS_SpecificHumidity_IsbL-0400_LatLon0.15_PT204H.grib2 2026-04-30 16:33 1.4M
20260430T12Z_MSC_GDPS_SpecificHumidity_IsbL-0450_LatLon0.15_PT204H.grib2 2026-04-30 16:33 1.3M
20260430T12Z_MSC_GDPS_SpecificHumidity_IsbL-0500_LatLon0.15_PT204H.grib2 2026-04-30 16:33 1.5M
20260430T12Z_MSC_GDPS_SpecificHumidity_IsbL-0550_LatLon0.15_PT204H.grib2 2026-04-30 16:33 1.6M
20260430T12Z_MSC_GDPS_SpecificHumidity_IsbL-0600_LatLon0.15_PT204H.grib2 2026-04-30 16:33 1.4M
20260430T12Z_MSC_GDPS_SpecificHumidity_IsbL-0650_LatLon0.15_PT204H.grib2 2026-04-30 16:33 1.5M
20260430T12Z_MSC_GDPS_SpecificHumidity_IsbL-0700_LatLon0.15_PT204H.grib2 2026-04-30 16:33 1.6M
20260430T12Z_MSC_GDPS_SpecificHumidity_IsbL-0750_LatLon0.15_PT204H.grib2 2026-04-30 16:33 1.8M
20260430T12Z_MSC_GDPS_SpecificHumidity_IsbL-0800_LatLon0.15_PT204H.grib2 2026-04-30 16:33 1.9M
20260430T12Z_MSC_GDPS_SpecificHumidity_IsbL-0850_LatLon0.15_PT204H.grib2 2026-04-30 16:33 2.0M
20260430T12Z_MSC_GDPS_SpecificHumidity_IsbL-0875_LatLon0.15_PT204H.grib2 2026-04-30 16:33 2.0M
20260430T12Z_MSC_GDPS_SpecificHumidity_IsbL-0900_LatLon0.15_PT204H.grib2 2026-04-30 16:33 2.0M
20260430T12Z_MSC_GDPS_SpecificHumidity_IsbL-0925_LatLon0.15_PT204H.grib2 2026-04-30 16:33 1.6M
20260430T12Z_MSC_GDPS_SpecificHumidity_IsbL-0950_LatLon0.15_PT204H.grib2 2026-04-30 16:33 1.6M
20260430T12Z_MSC_GDPS_SpecificHumidity_IsbL-0970_LatLon0.15_PT204H.grib2 2026-04-30 16:33 1.6M
20260430T12Z_MSC_GDPS_SpecificHumidity_IsbL-0985_LatLon0.15_PT204H.grib2 2026-04-30 16:33 1.5M
20260430T12Z_MSC_GDPS_SpecificHumidity_IsbL-1000_LatLon0.15_PT204H.grib2 2026-04-30 16:33 1.5M
20260430T12Z_MSC_GDPS_SpecificHumidity_IsbL-1015_LatLon0.15_PT204H.grib2 2026-04-30 16:33 1.5M
20260430T12Z_MSC_GDPS_SpecificHumidity_Sfc_LatLon0.15_PT204H.grib2 2026-04-30 16:33 645K
20260430T12Z_MSC_GDPS_Thickness_IsbL-0850to0700_LatLon0.15_PT204H.grib2 2026-04-30 16:33 467K
20260430T12Z_MSC_GDPS_Thickness_IsbL-1000to0500_LatLon0.15_PT204H.grib2 2026-04-30 16:33 371K
20260430T12Z_MSC_GDPS_Thickness_IsbL-1000to0850_LatLon0.15_PT204H.grib2 2026-04-30 16:33 487K
20260430T12Z_MSC_GDPS_TotalCloudCover_Sfc_LatLon0.15_PT204H.grib2 2026-04-30 16:33 844K
20260430T12Z_MSC_GDPS_TotalTotalsIndex_Sfc_LatLon0.15_PT204H.grib2 2026-04-30 16:33 6.2M
20260430T12Z_MSC_GDPS_UVIndex-ClearSky_Sfc_LatLon0.15_PT204H.grib2 2026-04-30 16:46 1.0M
20260430T12Z_MSC_GDPS_UVIndex_Sfc_LatLon0.15_PT204H.grib2 2026-04-30 16:46 1.5M
20260430T12Z_MSC_GDPS_UpwardLongwaveRadiationFlux_NTAtm_LatLon0.15_PT204H.grib2 2026-04-30 16:33 839K
20260430T12Z_MSC_GDPS_VerticalVelocity_IsbL-0200_LatLon0.15_PT204H.grib2 2026-04-30 16:33 1.2M
20260430T12Z_MSC_GDPS_VerticalVelocity_IsbL-0250_LatLon0.15_PT204H.grib2 2026-04-30 16:33 1.0M
20260430T12Z_MSC_GDPS_VerticalVelocity_IsbL-0500_LatLon0.15_PT204H.grib2 2026-04-30 16:33 1.2M
20260430T12Z_MSC_GDPS_VerticalVelocity_IsbL-0600_LatLon0.15_PT204H.grib2 2026-04-30 16:33 1.3M
20260430T12Z_MSC_GDPS_VerticalVelocity_IsbL-0700_LatLon0.15_PT204H.grib2 2026-04-30 16:33 1.1M
20260430T12Z_MSC_GDPS_VerticalVelocity_IsbL-0850_LatLon0.15_PT204H.grib2 2026-04-30 16:33 1.3M
20260430T12Z_MSC_GDPS_WindChill_Sfc_LatLon0.15_PT204H.grib2 2026-04-30 16:33 5.3M
20260430T12Z_MSC_GDPS_WindDir_AGL-10m_LatLon0.15_PT204H.grib2 2026-04-30 16:33 1.3M
20260430T12Z_MSC_GDPS_WindDir_AGL-120m_LatLon0.15_PT204H.grib2 2026-04-30 16:33 1.3M
20260430T12Z_MSC_GDPS_WindDir_AGL-40m_LatLon0.15_PT204H.grib2 2026-04-30 16:33 1.4M
20260430T12Z_MSC_GDPS_WindDir_AGL-80m_LatLon0.15_PT204H.grib2 2026-04-30 16:33 1.4M
20260430T12Z_MSC_GDPS_WindDir_IsbL-0001_LatLon0.15_PT204H.grib2 2026-04-30 16:33 670K
20260430T12Z_MSC_GDPS_WindDir_IsbL-0005_LatLon0.15_PT204H.grib2 2026-04-30 16:33 808K
20260430T12Z_MSC_GDPS_WindDir_IsbL-0010_LatLon0.15_PT204H.grib2 2026-04-30 16:33 821K
20260430T12Z_MSC_GDPS_WindDir_IsbL-0020_LatLon0.15_PT204H.grib2 2026-04-30 16:33 930K
20260430T12Z_MSC_GDPS_WindDir_IsbL-0030_LatLon0.15_PT204H.grib2 2026-04-30 16:33 936K
20260430T12Z_MSC_GDPS_WindDir_IsbL-0050_LatLon0.15_PT204H.grib2 2026-04-30 16:33 955K
20260430T12Z_MSC_GDPS_WindDir_IsbL-0100_LatLon0.15_PT204H.grib2 2026-04-30 16:33 1.0M
20260430T12Z_MSC_GDPS_WindDir_IsbL-0150_LatLon0.15_PT204H.grib2 2026-04-30 16:33 1.0M
20260430T12Z_MSC_GDPS_WindDir_IsbL-0175_LatLon0.15_PT204H.grib2 2026-04-30 16:33 1.1M
20260430T12Z_MSC_GDPS_WindDir_IsbL-0200_LatLon0.15_PT204H.grib2 2026-04-30 16:33 1.1M
20260430T12Z_MSC_GDPS_WindDir_IsbL-0225_LatLon0.15_PT204H.grib2 2026-04-30 16:33 1.1M
20260430T12Z_MSC_GDPS_WindDir_IsbL-0250_LatLon0.15_PT204H.grib2 2026-04-30 16:33 1.1M
20260430T12Z_MSC_GDPS_WindDir_IsbL-0275_LatLon0.15_PT204H.grib2 2026-04-30 16:33 1.2M
20260430T12Z_MSC_GDPS_WindDir_IsbL-0300_LatLon0.15_PT204H.grib2 2026-04-30 16:33 1.2M
20260430T12Z_MSC_GDPS_WindDir_IsbL-0350_LatLon0.15_PT204H.grib2 2026-04-30 16:33 1.3M
20260430T12Z_MSC_GDPS_WindDir_IsbL-0400_LatLon0.15_PT204H.grib2 2026-04-30 16:33 1.3M
20260430T12Z_MSC_GDPS_WindDir_IsbL-0450_LatLon0.15_PT204H.grib2 2026-04-30 16:33 1.3M
20260430T12Z_MSC_GDPS_WindDir_IsbL-0500_LatLon0.15_PT204H.grib2 2026-04-30 16:33 1.4M
20260430T12Z_MSC_GDPS_WindDir_IsbL-0550_LatLon0.15_PT204H.grib2 2026-04-30 16:33 1.4M
20260430T12Z_MSC_GDPS_WindDir_IsbL-0600_LatLon0.15_PT204H.grib2 2026-04-30 16:33 1.5M
20260430T12Z_MSC_GDPS_WindDir_IsbL-0650_LatLon0.15_PT204H.grib2 2026-04-30 16:33 1.5M
20260430T12Z_MSC_GDPS_WindDir_IsbL-0700_LatLon0.15_PT204H.grib2 2026-04-30 16:33 1.6M
20260430T12Z_MSC_GDPS_WindDir_IsbL-0750_LatLon0.15_PT204H.grib2 2026-04-30 16:33 1.7M
20260430T12Z_MSC_GDPS_WindDir_IsbL-0800_LatLon0.15_PT204H.grib2 2026-04-30 16:33 1.8M
20260430T12Z_MSC_GDPS_WindDir_IsbL-0850_LatLon0.15_PT204H.grib2 2026-04-30 16:33 1.9M
20260430T12Z_MSC_GDPS_WindDir_IsbL-0875_LatLon0.15_PT204H.grib2 2026-04-30 16:33 1.9M
20260430T12Z_MSC_GDPS_WindDir_IsbL-0900_LatLon0.15_PT204H.grib2 2026-04-30 16:33 2.0M
20260430T12Z_MSC_GDPS_WindDir_IsbL-0925_LatLon0.15_PT204H.grib2 2026-04-30 16:33 2.0M
20260430T12Z_MSC_GDPS_WindDir_IsbL-0950_LatLon0.15_PT204H.grib2 2026-04-30 16:33 2.0M
20260430T12Z_MSC_GDPS_WindDir_IsbL-0970_LatLon0.15_PT204H.grib2 2026-04-30 16:33 2.0M
20260430T12Z_MSC_GDPS_WindDir_IsbL-0985_LatLon0.15_PT204H.grib2 2026-04-30 16:33 2.0M
20260430T12Z_MSC_GDPS_WindDir_IsbL-1000_LatLon0.15_PT204H.grib2 2026-04-30 16:33 2.1M
20260430T12Z_MSC_GDPS_WindDir_IsbL-1015_LatLon0.15_PT204H.grib2 2026-04-30 16:33 2.0M
20260430T12Z_MSC_GDPS_WindGust-Max_AGL-10m_LatLon0.15_PT204H.grib2 2026-04-30 16:33 2.2M
20260430T12Z_MSC_GDPS_WindGust-Min_AGL-10m_LatLon0.15_PT204H.grib2 2026-04-30 16:33 2.2M
20260430T12Z_MSC_GDPS_WindGust_AGL-10m_LatLon0.15_PT204H.grib2 2026-04-30 16:33 2.2M
20260430T12Z_MSC_GDPS_WindSpeed_AGL-10m_LatLon0.15_PT204H.grib2 2026-04-30 16:33 1.1M
20260430T12Z_MSC_GDPS_WindSpeed_AGL-120m_LatLon0.15_PT204H.grib2 2026-04-30 16:33 1.2M
20260430T12Z_MSC_GDPS_WindSpeed_AGL-40m_LatLon0.15_PT204H.grib2 2026-04-30 16:33 1.2M
20260430T12Z_MSC_GDPS_WindSpeed_AGL-80m_LatLon0.15_PT204H.grib2 2026-04-30 16:33 1.2M
20260430T12Z_MSC_GDPS_WindSpeed_IsbL-0001_LatLon0.15_PT204H.grib2 2026-04-30 16:33 651K
20260430T12Z_MSC_GDPS_WindSpeed_IsbL-0005_LatLon0.15_PT204H.grib2 2026-04-30 16:33 690K
20260430T12Z_MSC_GDPS_WindSpeed_IsbL-0010_LatLon0.15_PT204H.grib2 2026-04-30 16:33 625K
20260430T12Z_MSC_GDPS_WindSpeed_IsbL-0020_LatLon0.15_PT204H.grib2 2026-04-30 16:33 657K
20260430T12Z_MSC_GDPS_WindSpeed_IsbL-0030_LatLon0.15_PT204H.grib2 2026-04-30 16:33 858K
20260430T12Z_MSC_GDPS_WindSpeed_IsbL-0050_LatLon0.15_PT204H.grib2 2026-04-30 16:33 892K
20260430T12Z_MSC_GDPS_WindSpeed_IsbL-0100_LatLon0.15_PT204H.grib2 2026-04-30 16:33 1.1M
20260430T12Z_MSC_GDPS_WindSpeed_IsbL-0150_LatLon0.15_PT204H.grib2 2026-04-30 16:33 1.0M
20260430T12Z_MSC_GDPS_WindSpeed_IsbL-0175_LatLon0.15_PT204H.grib2 2026-04-30 16:33 1.0M
20260430T12Z_MSC_GDPS_WindSpeed_IsbL-0200_LatLon0.15_PT204H.grib2 2026-04-30 16:33 1.0M
20260430T12Z_MSC_GDPS_WindSpeed_IsbL-0225_LatLon0.15_PT204H.grib2 2026-04-30 16:33 1.1M
20260430T12Z_MSC_GDPS_WindSpeed_IsbL-0250_LatLon0.15_PT204H.grib2 2026-04-30 16:33 1.1M
20260430T12Z_MSC_GDPS_WindSpeed_IsbL-0275_LatLon0.15_PT204H.grib2 2026-04-30 16:33 1.1M
20260430T12Z_MSC_GDPS_WindSpeed_IsbL-0300_LatLon0.15_PT204H.grib2 2026-04-30 16:33 1.1M
20260430T12Z_MSC_GDPS_WindSpeed_IsbL-0350_LatLon0.15_PT204H.grib2 2026-04-30 16:33 1.1M
20260430T12Z_MSC_GDPS_WindSpeed_IsbL-0400_LatLon0.15_PT204H.grib2 2026-04-30 16:33 1.1M
20260430T12Z_MSC_GDPS_WindSpeed_IsbL-0450_LatLon0.15_PT204H.grib2 2026-04-30 16:33 1.1M
20260430T12Z_MSC_GDPS_WindSpeed_IsbL-0500_LatLon0.15_PT204H.grib2 2026-04-30 16:33 1.1M
20260430T12Z_MSC_GDPS_WindSpeed_IsbL-0550_LatLon0.15_PT204H.grib2 2026-04-30 16:33 1.1M
20260430T12Z_MSC_GDPS_WindSpeed_IsbL-0600_LatLon0.15_PT204H.grib2 2026-04-30 16:33 1.4M
20260430T12Z_MSC_GDPS_WindSpeed_IsbL-0650_LatLon0.15_PT204H.grib2 2026-04-30 16:33 1.4M
20260430T12Z_MSC_GDPS_WindSpeed_IsbL-0700_LatLon0.15_PT204H.grib2 2026-04-30 16:33 1.5M
20260430T12Z_MSC_GDPS_WindSpeed_IsbL-0750_LatLon0.15_PT204H.grib2 2026-04-30 16:33 1.6M
20260430T12Z_MSC_GDPS_WindSpeed_IsbL-0800_LatLon0.15_PT204H.grib2 2026-04-30 16:33 1.6M
20260430T12Z_MSC_GDPS_WindSpeed_IsbL-0850_LatLon0.15_PT204H.grib2 2026-04-30 16:33 1.7M
20260430T12Z_MSC_GDPS_WindSpeed_IsbL-0875_LatLon0.15_PT204H.grib2 2026-04-30 16:33 1.8M
20260430T12Z_MSC_GDPS_WindSpeed_IsbL-0900_LatLon0.15_PT204H.grib2 2026-04-30 16:33 1.8M
20260430T12Z_MSC_GDPS_WindSpeed_IsbL-0925_LatLon0.15_PT204H.grib2 2026-04-30 16:33 1.8M
20260430T12Z_MSC_GDPS_WindSpeed_IsbL-0950_LatLon0.15_PT204H.grib2 2026-04-30 16:33 1.9M
20260430T12Z_MSC_GDPS_WindSpeed_IsbL-0970_LatLon0.15_PT204H.grib2 2026-04-30 16:33 1.9M
20260430T12Z_MSC_GDPS_WindSpeed_IsbL-0985_LatLon0.15_PT204H.grib2 2026-04-30 16:33 1.9M
20260430T12Z_MSC_GDPS_WindSpeed_IsbL-1000_LatLon0.15_PT204H.grib2 2026-04-30 16:33 1.8M
20260430T12Z_MSC_GDPS_WindSpeed_IsbL-1015_LatLon0.15_PT204H.grib2 2026-04-30 16:33 1.8M
20260430T12Z_MSC_GDPS_WindU_AGL-10m_LatLon0.15_PT204H.grib2 2026-04-30 16:33 1.3M
20260430T12Z_MSC_GDPS_WindU_AGL-120m_LatLon0.15_PT204H.grib2 2026-04-30 16:33 1.0M
20260430T12Z_MSC_GDPS_WindU_AGL-40m_LatLon0.15_PT204H.grib2 2026-04-30 16:33 970K
20260430T12Z_MSC_GDPS_WindU_AGL-80m_LatLon0.15_PT204H.grib2 2026-04-30 16:33 1.0M
20260430T12Z_MSC_GDPS_WindU_IsbL-0001_LatLon0.15_PT204H.grib2 2026-04-30 16:33 505K
20260430T12Z_MSC_GDPS_WindU_IsbL-0005_LatLon0.15_PT204H.grib2 2026-04-30 16:33 691K
20260430T12Z_MSC_GDPS_WindU_IsbL-0010_LatLon0.15_PT204H.grib2 2026-04-30 16:33 700K
20260430T12Z_MSC_GDPS_WindU_IsbL-0020_LatLon0.15_PT204H.grib2 2026-04-30 16:33 724K
20260430T12Z_MSC_GDPS_WindU_IsbL-0030_LatLon0.15_PT204H.grib2 2026-04-30 16:33 733K
20260430T12Z_MSC_GDPS_WindU_IsbL-0050_LatLon0.15_PT204H.grib2 2026-04-30 16:33 756K
20260430T12Z_MSC_GDPS_WindU_IsbL-0100_LatLon0.15_PT204H.grib2 2026-04-30 16:33 862K
20260430T12Z_MSC_GDPS_WindU_IsbL-0150_LatLon0.15_PT204H.grib2 2026-04-30 16:33 1.0M
20260430T12Z_MSC_GDPS_WindU_IsbL-0175_LatLon0.15_PT204H.grib2 2026-04-30 16:33 1.0M
20260430T12Z_MSC_GDPS_WindU_IsbL-0200_LatLon0.15_PT204H.grib2 2026-04-30 16:33 838K
20260430T12Z_MSC_GDPS_WindU_IsbL-0225_LatLon0.15_PT204H.grib2 2026-04-30 16:33 850K
20260430T12Z_MSC_GDPS_WindU_IsbL-0250_LatLon0.15_PT204H.grib2 2026-04-30 16:33 854K
20260430T12Z_MSC_GDPS_WindU_IsbL-0275_LatLon0.15_PT204H.grib2 2026-04-30 16:33 883K
20260430T12Z_MSC_GDPS_WindU_IsbL-0300_LatLon0.15_PT204H.grib2 2026-04-30 16:33 875K
20260430T12Z_MSC_GDPS_WindU_IsbL-0350_LatLon0.15_PT204H.grib2 2026-04-30 16:33 890K
20260430T12Z_MSC_GDPS_WindU_IsbL-0400_LatLon0.15_PT204H.grib2 2026-04-30 16:33 1.1M
20260430T12Z_MSC_GDPS_WindU_IsbL-0450_LatLon0.15_PT204H.grib2 2026-04-30 16:33 1.1M
20260430T12Z_MSC_GDPS_WindU_IsbL-0500_LatLon0.15_PT204H.grib2 2026-04-30 16:33 1.1M
20260430T12Z_MSC_GDPS_WindU_IsbL-0550_LatLon0.15_PT204H.grib2 2026-04-30 16:33 1.1M
20260430T12Z_MSC_GDPS_WindU_IsbL-0600_LatLon0.15_PT204H.grib2 2026-04-30 16:33 1.1M
20260430T12Z_MSC_GDPS_WindU_IsbL-0650_LatLon0.15_PT204H.grib2 2026-04-30 16:33 1.2M
20260430T12Z_MSC_GDPS_WindU_IsbL-0700_LatLon0.15_PT204H.grib2 2026-04-30 16:33 1.2M
20260430T12Z_MSC_GDPS_WindU_IsbL-0750_LatLon0.15_PT204H.grib2 2026-04-30 16:33 1.3M
20260430T12Z_MSC_GDPS_WindU_IsbL-0800_LatLon0.15_PT204H.grib2 2026-04-30 16:33 1.3M
20260430T12Z_MSC_GDPS_WindU_IsbL-0850_LatLon0.15_PT204H.grib2 2026-04-30 16:33 1.4M
20260430T12Z_MSC_GDPS_WindU_IsbL-0875_LatLon0.15_PT204H.grib2 2026-04-30 16:33 1.5M
20260430T12Z_MSC_GDPS_WindU_IsbL-0900_LatLon0.15_PT204H.grib2 2026-04-30 16:33 1.5M
20260430T12Z_MSC_GDPS_WindU_IsbL-0925_LatLon0.15_PT204H.grib2 2026-04-30 16:33 1.5M
20260430T12Z_MSC_GDPS_WindU_IsbL-0950_LatLon0.15_PT204H.grib2 2026-04-30 16:33 1.4M
20260430T12Z_MSC_GDPS_WindU_IsbL-0970_LatLon0.15_PT204H.grib2 2026-04-30 16:33 1.4M
20260430T12Z_MSC_GDPS_WindU_IsbL-0985_LatLon0.15_PT204H.grib2 2026-04-30 16:33 1.4M
20260430T12Z_MSC_GDPS_WindU_IsbL-1000_LatLon0.15_PT204H.grib2 2026-04-30 16:33 1.4M
20260430T12Z_MSC_GDPS_WindU_IsbL-1015_LatLon0.15_PT204H.grib2 2026-04-30 16:33 1.3M
20260430T12Z_MSC_GDPS_WindV_AGL-10m_LatLon0.15_PT204H.grib2 2026-04-30 16:33 1.3M
20260430T12Z_MSC_GDPS_WindV_AGL-120m_LatLon0.15_PT204H.grib2 2026-04-30 16:33 1.0M
20260430T12Z_MSC_GDPS_WindV_AGL-40m_LatLon0.15_PT204H.grib2 2026-04-30 16:33 969K
20260430T12Z_MSC_GDPS_WindV_AGL-80m_LatLon0.15_PT204H.grib2 2026-04-30 16:33 1.0M
20260430T12Z_MSC_GDPS_WindV_IsbL-0001_LatLon0.15_PT204H.grib2 2026-04-30 16:33 785K
20260430T12Z_MSC_GDPS_WindV_IsbL-0005_LatLon0.15_PT204H.grib2 2026-04-30 16:33 766K
20260430T12Z_MSC_GDPS_WindV_IsbL-0010_LatLon0.15_PT204H.grib2 2026-04-30 16:33 791K
20260430T12Z_MSC_GDPS_WindV_IsbL-0020_LatLon0.15_PT204H.grib2 2026-04-30 16:33 840K
20260430T12Z_MSC_GDPS_WindV_IsbL-0030_LatLon0.15_PT204H.grib2 2026-04-30 16:33 847K
20260430T12Z_MSC_GDPS_WindV_IsbL-0050_LatLon0.15_PT204H.grib2 2026-04-30 16:33 971K
20260430T12Z_MSC_GDPS_WindV_IsbL-0100_LatLon0.15_PT204H.grib2 2026-04-30 16:33 1.1M
20260430T12Z_MSC_GDPS_WindV_IsbL-0150_LatLon0.15_PT204H.grib2 2026-04-30 16:33 1.0M
20260430T12Z_MSC_GDPS_WindV_IsbL-0175_LatLon0.15_PT204H.grib2 2026-04-30 16:33 809K
20260430T12Z_MSC_GDPS_WindV_IsbL-0200_LatLon0.15_PT204H.grib2 2026-04-30 16:33 837K
20260430T12Z_MSC_GDPS_WindV_IsbL-0225_LatLon0.15_PT204H.grib2 2026-04-30 16:33 905K
20260430T12Z_MSC_GDPS_WindV_IsbL-0250_LatLon0.15_PT204H.grib2 2026-04-30 16:33 908K
20260430T12Z_MSC_GDPS_WindV_IsbL-0275_LatLon0.15_PT204H.grib2 2026-04-30 16:33 933K
20260430T12Z_MSC_GDPS_WindV_IsbL-0300_LatLon0.15_PT204H.grib2 2026-04-30 16:33 925K
20260430T12Z_MSC_GDPS_WindV_IsbL-0350_LatLon0.15_PT204H.grib2 2026-04-30 16:33 878K
20260430T12Z_MSC_GDPS_WindV_IsbL-0400_LatLon0.15_PT204H.grib2 2026-04-30 16:33 882K
20260430T12Z_MSC_GDPS_WindV_IsbL-0450_LatLon0.15_PT204H.grib2 2026-04-30 16:33 1.1M
20260430T12Z_MSC_GDPS_WindV_IsbL-0500_LatLon0.15_PT204H.grib2 2026-04-30 16:33 1.1M
20260430T12Z_MSC_GDPS_WindV_IsbL-0550_LatLon0.15_PT204H.grib2 2026-04-30 16:33 1.1M
20260430T12Z_MSC_GDPS_WindV_IsbL-0600_LatLon0.15_PT204H.grib2 2026-04-30 16:33 1.1M
20260430T12Z_MSC_GDPS_WindV_IsbL-0650_LatLon0.15_PT204H.grib2 2026-04-30 16:33 1.2M
20260430T12Z_MSC_GDPS_WindV_IsbL-0700_LatLon0.15_PT204H.grib2 2026-04-30 16:33 1.2M
20260430T12Z_MSC_GDPS_WindV_IsbL-0750_LatLon0.15_PT204H.grib2 2026-04-30 16:33 1.3M
20260430T12Z_MSC_GDPS_WindV_IsbL-0800_LatLon0.15_PT204H.grib2 2026-04-30 16:33 1.3M
20260430T12Z_MSC_GDPS_WindV_IsbL-0850_LatLon0.15_PT204H.grib2 2026-04-30 16:33 1.4M
20260430T12Z_MSC_GDPS_WindV_IsbL-0875_LatLon0.15_PT204H.grib2 2026-04-30 16:33 1.4M
20260430T12Z_MSC_GDPS_WindV_IsbL-0900_LatLon0.15_PT204H.grib2 2026-04-30 16:33 1.5M
20260430T12Z_MSC_GDPS_WindV_IsbL-0925_LatLon0.15_PT204H.grib2 2026-04-30 16:33 1.5M
20260430T12Z_MSC_GDPS_WindV_IsbL-0950_LatLon0.15_PT204H.grib2 2026-04-30 16:33 1.4M
20260430T12Z_MSC_GDPS_WindV_IsbL-0970_LatLon0.15_PT204H.grib2 2026-04-30 16:33 1.4M
20260430T12Z_MSC_GDPS_WindV_IsbL-0985_LatLon0.15_PT204H.grib2 2026-04-30 16:33 1.4M
20260430T12Z_MSC_GDPS_WindV_IsbL-1000_LatLon0.15_PT204H.grib2 2026-04-30 16:33 1.4M
20260430T12Z_MSC_GDPS_WindV_IsbL-1015_LatLon0.15_PT204H.grib2 2026-04-30 16:33 1.3M